This is the latest recevied weather packets stored in our database for station/object N3WGC-14. If no packets are shown the sender has not sent any weather packets the latest 10 day(s).
| Time | Temp. | Humidity | Pressure | Rain* | Wind** | Luminosity | Snow |
|---|---|---|---|---|---|---|---|
| 1787463983 | 21.67° C | 99% | 1010.5 hPa | 3.81 mm | - | - | - |
| 1787463683 | 22.22° C | 99% | 1010.5 hPa | 3.56 mm | - | - | - |
| 1787463383 | 22.22° C | 98% | 1010.7 hPa | 3.3 mm | - | - | - |
| 1787463083 | 22.22° C | 98% | 1011 hPa | 2.54 mm | - | - | - |
| 1787462783 | 22.22° C | 98% | 1011 hPa | 1.78 mm | - | - | - |
| 1787462482 | 22.22° C | 98% | 1011.2 hPa | 1.27 mm | - | - | - |
| 1787462182 | 22.22° C | 98% | 1011.2 hPa | 1.02 mm | - | - | - |
| 1787461882 | 22.22° C | 97% | 1011.3 hPa | 1.02 mm | - | - | - |
| 1787461582 | 22.22° C | 97% | 1011.2 hPa | 0.76 mm | - | - | - |
| 1787461282 | 22.22° C | 97% | 1011.1 hPa | 0.25 mm | - | - | - |
| 1787460982 | 22.22° C | 97% | 1011.1 hPa | 0 mm | - | - | - |
| 1787460681 | 22.22° C | 97% | 1011.2 hPa | 0 mm | - | - | - |
| 1787460381 | 22.22° C | 97% | 1011 hPa | 0 mm | - | - | - |
| 1787460081 | 22.22° C | 97% | 1011.1 hPa | 0 mm | - | - | - |
| 1787459781 | 22.22° C | 96% | 1011 hPa | 0 mm | - | - | - |
| 1787459481 | 22.22° C | 97% | 1011.1 hPa | 0 mm | - | - | - |
| 1787459181 | 22.22° C | 96% | 1011.3 hPa | 0 mm | - | - | - |
| 1787458881 | 22.22° C | 97% | 1011.3 hPa | 0 mm | - | - | - |
| 1787458580 | 22.22° C | 97% | 1011.3 hPa | 0 mm | - | - | - |
| 1787458280 | 22.22° C | 96% | 1011.3 hPa | 0 mm | - | - | - |
| 1787457980 | 22.22° C | 96% | 1011.5 hPa | 0 mm | - | - | - |
| 1787457680 | 22.22° C | 96% | 1011.6 hPa | 0 mm | - | - | - |
| 1787457380 | 22.22° C | 96% | 1011.7 hPa | 0 mm | - | - | - |
| 1787457080 | 22.22° C | 96% | 1011.7 hPa | 0 mm | - | - | - |
| 1787456779 | 22.22° C | 96% | 1011.9 hPa | 0 mm | - | - | - |
* Rain latest hour (hover to see other rain measurements)
** Current wind speed in m/s (hover to see current wind gust speed)